Tracking 35275 objects as of 8-Sep-2026
HD Live streaming from Space Station
objects crossing your sky now

OPS 0440


OPS 0440 is no longer on orbit


NORAD ID: 4342
Int'l Code: 1970-016A
Launch date: March 4, 1970
Source: United States (US)
Launch site: AIR FORCE WESTERN TEST RANGE (AFWTR)
Decay date: 1970-03-26
Your satellite tracking list
Your tracking list is empty




NASA's NSSDC Master Catalog

Two Line Element Set (TLE):
1 04342U 70016  A 70071.30617665  .00598391 +00000-0 +00000-0 0  9991
2 04342 088.0287 195.7283 0054500 119.6077 241.0615 16.22503725001203
Source of the keplerian elements: AFSPC